COSMOS 2215

导读

**COSMOS 2215卫星摘要** COSMOS 2215是独联体(CIS)于1992年10月20日发射的卫星,隶属于苏联/俄罗斯“宇宙”(Cosmos)系列卫星。该系列命名涵盖军事航天器、科学探测卫星等多类任务,通过统一序号命名模糊卫星用途,增强保密性。作为冷战后独联体早期航天活动成员,它延续了苏联航天传统,承载特定轨道任务,是“宇宙”系列批量发射模式下的典型卫星。

Basic Information
目录编号:
22186
目录名称:
COSMOS 2215
国际标识:
1992-068E
轨道中心:
EARTH
卫星名称:
COSMOS 2215
卫星全名:
--
卫星状态:
在轨 (已飞行12293 天)
发射日期:
1992-10-20 UTC
国别 :
俄罗斯(独联体) (CIS)
星等 :
--
Orbit Information
数据来源 国际轨道数据 AOE轨道数据
星历时间 2026-06-17T09:43:20+0800
6小时前
查看轨道信息
2026-06-15T07:00:00+0800
2天前
查看轨道信息
半长轴 7797.106km 7797.107km
偏心率 0.0012611 0.0012587
轨道倾角 82.601° 82.600°
近地点辐角 173.575° 178.010°
升交点赤经 12.790° 14.132°
平近点角 186.551° 313.067°
近地点 1409.136km 1409.155km
远地点 1428.802km 1428.785km
周期 114.198分钟 114.198分钟
每日圈数 12.609639 12.609636
Detailed Information
使用方式:
暂无
2D Orbit Map
3D Orbit Map
Orbit Altitude Analysis Chart
Orbit Inclination Analysis Chart
Orbit Comprehensive Analysis Chart
View Comprehensive Chart